Time,TemperatureF,DewpointF,PressureIn,WindDirection,WindDirectionDegrees,WindSpeedMPH,WindSpeedGustMPH,Humidity,HourlyPrecipIn,Conditions,Clouds,dailyrainin,SoftwareType,DateUTC
2014-09-19 00:03:00,61.4,61.0,29.98,NE,38,0.0,0.0,98,0.00,,,0.01,weatherlink.com 1.10,2014-09-19 07:03:00,
2014-09-19 00:18:00,61.5,61.0,29.98,NE,38,0.0,0.0,98,0.00,,,0.00,weatherlink.com 1.10,2014-09-19 07:18:00,
2014-09-19 00:33:00,61.2,61.0,29.98,NE,38,0.0,0.0,98,0.00,,,0.00,weatherlink.com 1.10,2014-09-19 07:33:00,
2014-09-19 00:48:00,61.2,61.0,29.97,NE,38,0.0,0.0,98,0.00,,,0.00,weatherlink.com 1.10,2014-09-19 07:48:00,
2014-09-19 01:03:00,61.3,61.0,29.97,NE,38,0.0,0.0,98,0.00,,,0.00,weatherlink.com 1.10,2014-09-19 08:03:00,
2014-09-19 01:18:00,61.4,61.0,29.97,NE,38,0.0,0.0,98,0.00,,,0.00,weatherlink.com 1.10,2014-09-19 08:18:00,
2014-09-19 01:33:00,61.4,61.0,29.97,NE,38,0.0,0.0,98,0.00,,,0.00,weatherlink.com 1.10,2014-09-19 08:33:00,
2014-09-19 01:48:00,61.5,61.0,29.97,NE,38,0.0,0.0,98,0.00,,,0.00,weatherlink.com 1.10,2014-09-19 08:48:00,
2014-09-19 02:03:00,61.5,61.0,29.98,NE,38,0.0,0.0,98,0.00,,,0.00,weatherlink.com 1.10,2014-09-19 09:03:00,
2014-09-19 02:18:00,61.6,61.0,29.98,NE,38,0.0,0.0,98,0.00,,,0.00,weatherlink.com 1.10,2014-09-19 09:18:00,
2014-09-19 02:33:00,61.6,61.0,29.98,NE,38,0.0,1.0,98,0.00,,,0.00,weatherlink.com 1.10,2014-09-19 09:33:00,
2014-09-19 02:48:00,61.7,61.0,29.97,NE,38,0.0,0.0,98,0.00,,,0.00,weatherlink.com 1.10,2014-09-19 09:48:00,
2014-09-19 03:03:00,61.6,61.0,29.98,NE,38,0.0,0.0,98,0.00,,,0.00,weatherlink.com 1.10,2014-09-19 10:03:00,
2014-09-19 03:19:00,61.3,61.0,29.98,NE,38,0.0,2.0,97,0.00,,,0.00,weatherlink.com 1.10,2014-09-19 10:19:00,
2014-09-19 03:33:00,61.0,60.0,29.97,NE,38,0.0,0.0,97,0.00,,,0.00,weatherlink.com 1.10,2014-09-19 10:33:00,
2014-09-19 03:49:00,60.9,60.0,29.97,NE,38,0.0,0.0,96,0.00,,,0.00,weatherlink.com 1.10,2014-09-19 10:49:00,
2014-09-19 04:04:00,60.9,60.0,29.97,NE,38,0.0,0.0,97,0.00,,,0.00,weatherlink.com 1.10,2014-09-19 11:04:00,
2014-09-19 04:19:00,60.9,60.0,29.96,NE,38,0.0,0.0,97,0.00,,,0.00,weatherlink.com 1.10,2014-09-19 11:19:00,
2014-09-19 04:34:00,60.9,60.0,29.96,NE,38,0.0,0.0,97,0.00,,,0.00,weatherlink.com 1.10,2014-09-19 11:34:00,
2014-09-19 04:49:00,61.0,60.0,29.96,NE,39,0.0,0.0,97,0.00,,,0.00,weatherlink.com 1.10,2014-09-19 11:49:00,
2014-09-19 05:04:00,60.9,60.0,29.96,NE,38,0.0,0.0,97,0.00,,,0.00,weatherlink.com 1.10,2014-09-19 12:04:00,
2014-09-19 05:19:00,61.0,60.0,29.96,NE,38,0.0,0.0,97,0.00,,,0.00,weatherlink.com 1.10,2014-09-19 12:19:00,
2014-09-19 05:34:00,61.0,60.0,29.97,NE,38,0.0,0.0,97,0.00,,,0.00,weatherlink.com 1.10,2014-09-19 12:34:00,
2014-09-19 05:49:00,60.8,60.0,29.97,NE,38,0.0,0.0,97,0.00,,,0.00,weatherlink.com 1.10,2014-09-19 12:49:00,
2014-09-19 06:04:00,60.8,60.0,29.97,NE,38,0.0,0.0,97,0.00,,,0.00,weatherlink.com 1.10,2014-09-19 13:04:00,
2014-09-19 06:19:00,60.8,60.0,29.97,NE,38,0.0,0.0,97,0.00,,,0.00,weatherlink.com 1.10,2014-09-19 13:19:00,
2014-09-19 06:34:00,60.8,60.0,29.96,NE,38,0.0,1.0,97,0.00,,,0.00,weatherlink.com 1.10,2014-09-19 13:34:00,
2014-09-19 06:49:00,60.8,60.0,29.97,NE,38,0.0,0.0,97,0.00,,,0.00,weatherlink.com 1.10,2014-09-19 13:49:00,
2014-09-19 07:04:00,60.8,60.0,29.97,NE,38,0.0,0.0,97,0.00,,,0.00,weatherlink.com 1.10,2014-09-19 14:04:00,
2014-09-19 07:19:00,60.9,60.0,29.98,NE,38,0.0,0.0,97,0.00,,,0.00,weatherlink.com 1.10,2014-09-19 14:19:00,
2014-09-19 07:34:00,60.9,60.0,29.98,NE,38,0.0,0.0,97,0.00,,,0.00,weatherlink.com 1.10,2014-09-19 14:34:00,
2014-09-19 07:49:00,61.1,60.0,29.98,NE,38,0.0,0.0,97,0.00,,,0.00,weatherlink.com 1.10,2014-09-19 14:49:00,
2014-09-19 08:04:00,61.2,60.0,29.98,NE,38,0.0,0.0,97,0.00,,,0.00,weatherlink.com 1.10,2014-09-19 15:04:00,
2014-09-19 08:19:00,61.6,61.0,29.98,NE,38,0.0,0.0,96,0.00,,,0.00,weatherlink.com 1.10,2014-09-19 15:19:00,
2014-09-19 08:34:00,61.7,60.0,29.98,NNE,17,0.0,1.0,95,0.00,,,0.00,weatherlink.com 1.10,2014-09-19 15:34:00,
2014-09-19 08:50:00,61.9,60.0,29.98,East,92,0.0,4.0,93,0.00,,,0.00,weatherlink.com 1.10,2014-09-19 15:50:00,
2014-09-19 09:04:00,62.2,60.0,29.98,SSW,205,2.0,2.0,92,0.00,,,0.00,weatherlink.com 1.10,2014-09-19 16:04:00,
2014-09-19 09:19:00,62.6,60.0,29.98,ENE,78,0.0,3.0,92,0.00,,,0.00,weatherlink.com 1.10,2014-09-19 16:19:00,
2014-09-19 09:34:00,63.6,61.0,29.98,NNW,343,0.0,2.0,91,0.00,,,0.00,weatherlink.com 1.10,2014-09-19 16:34:00,
2014-09-19 09:49:00,65.8,62.0,29.98,SE,132,0.0,3.0,87,0.00,,,0.00,weatherlink.com 1.10,2014-09-19 16:49:00,
2014-09-19 10:04:00,67.2,63.0,29.97,SSE,148,0.0,2.0,86,0.00,,,0.00,weatherlink.com 1.10,2014-09-19 17:04:00,
2014-09-19 10:19:00,68.8,64.0,29.97,SE,145,1.0,2.0,83,0.00,,,0.00,weatherlink.com 1.10,2014-09-19 17:19:00,
2014-09-19 10:34:00,69.9,64.0,29.96,SE,136,0.0,1.0,80,0.00,,,0.00,weatherlink.com 1.10,2014-09-19 17:34:00,
2014-09-19 10:49:00,71.6,64.0,29.96,SE,136,0.0,1.0,78,0.00,,,0.00,weatherlink.com 1.10,2014-09-19 17:49:00,
2014-09-19 11:04:00,73.1,65.0,29.95,SE,142,0.0,2.0,75,0.00,,,0.00,weatherlink.com 1.10,2014-09-19 18:04:00,
2014-09-19 11:19:00,75.9,66.0,29.94,SE,141,0.0,1.0,71,0.00,,,0.00,weatherlink.com 1.10,2014-09-19 18:19:00,
2014-09-19 11:34:00,75.3,65.0,29.94,West,279,3.0,4.0,70,0.00,,,0.00,weatherlink.com 1.10,2014-09-19 18:34:00,
2014-09-19 11:50:00,77.0,66.0,29.93,NE,38,0.0,4.0,68,0.00,,,0.00,weatherlink.com 1.10,2014-09-19 18:50:00,
2014-09-19 12:05:00,79.8,67.0,29.92,East,92,2.0,2.0,65,0.00,,,0.00,weatherlink.com 1.10,2014-09-19 19:05:00,
2014-09-19 12:20:00,81.1,65.0,29.91,SSE,161,1.0,2.0,59,0.00,,,0.00,weatherlink.com 1.10,2014-09-19 19:20:00,
2014-09-19 12:35:00,82.0,66.0,29.90,South,173,0.0,2.0,59,0.00,,,0.00,weatherlink.com 1.10,2014-09-19 19:35:00,
2014-09-19 12:50:00,83.0,62.0,29.89,SSE,153,2.0,3.0,49,0.00,,,0.00,weatherlink.com 1.10,2014-09-19 19:50:00,
2014-09-19 13:05:00,84.2,64.0,29.88,SW,223,0.0,2.0,50,0.00,,,0.00,weatherlink.com 1.10,2014-09-19 20:05:00,
2014-09-19 13:20:00,85.7,65.0,29.88,SE,146,0.0,2.0,50,0.00,,,0.00,weatherlink.com 1.10,2014-09-19 20:20:00,
2014-09-19 13:35:00,87.8,64.0,29.87,NNE,23,0.0,5.0,45,0.00,,,0.00,weatherlink.com 1.10,2014-09-19 20:35:00,
2014-09-19 13:50:00,89.6,61.0,29.86,NE,51,0.0,4.0,38,0.00,,,0.00,weatherlink.com 1.10,2014-09-19 20:50:00,
2014-09-19 14:05:00,90.9,59.0,29.85,SW,216,0.0,4.0,34,0.00,,,0.00,weatherlink.com 1.10,2014-09-19 21:05:00,
2014-09-19 14:20:00,90.7,63.0,29.85,WSW,249,0.0,4.0,40,0.00,,,0.00,weatherlink.com 1.10,2014-09-19 21:20:00,
2014-09-19 14:35:00,90.6,64.0,29.84,WNW,286,3.0,5.0,41,0.00,,,0.00,weatherlink.com 1.10,2014-09-19 21:35:00,
2014-09-19 14:50:00,88.8,67.0,29.84,West,270,1.0,8.0,48,0.00,,,0.00,weatherlink.com 1.10,2014-09-19 21:50:00,
2014-09-19 15:05:00,87.7,66.0,29.84,WSW,254,2.0,7.0,48,0.00,,,0.00,weatherlink.com 1.10,2014-09-19 22:05:00,
2014-09-19 15:20:00,87.4,65.0,29.84,WSW,240,1.0,5.0,47,0.00,,,0.00,weatherlink.com 1.10,2014-09-19 22:20:00,
2014-09-19 15:35:00,88.5,67.0,29.83,NNE,19,0.0,8.0,49,0.00,,,0.00,weatherlink.com 1.10,2014-09-19 22:35:00,
2014-09-19 15:50:00,87.9,65.0,29.84,North,355,1.0,11.0,47,0.00,,,0.00,weatherlink.com 1.10,2014-09-19 22:50:00,
2014-09-19 16:05:00,86.4,65.0,29.84,NE,55,3.0,9.0,49,0.00,,,0.00,weatherlink.com 1.10,2014-09-19 23:05:00,
2014-09-19 16:20:00,85.4,65.0,29.84,NW,321,0.0,6.0,50,0.00,,,0.00,weatherlink.com 1.10,2014-09-19 23:20:00,
2014-09-19 16:35:00,85.2,64.0,29.83,North,350,0.0,4.0,50,0.00,,,0.00,weatherlink.com 1.10,2014-09-19 23:35:00,
2014-09-19 16:50:00,84.5,64.0,29.83,North,355,1.0,4.0,51,0.00,,,0.00,weatherlink.com 1.10,2014-09-19 23:50:00,
2014-09-19 17:05:00,84.1,64.0,29.83,NW,319,1.0,6.0,51,0.00,,,0.00,weatherlink.com 1.10,2014-09-20 00:05:00,
2014-09-19 17:20:00,84.7,65.0,29.83,NNW,344,1.0,5.0,52,0.00,,,0.00,weatherlink.com 1.10,2014-09-20 00:20:00,